Find Kuiper-00123

NORAD ID: 65952 Int'l Des: 2025-228 Owner: KUIP Country: US Constellation: amazon-leo operational
LEOCIRCULAR

当前视图

正在加载3D地球...

About Kuiper-00123

Kuiper-00123 (NORAD 65952) is a amazon-leo constellation satellite launched Oct 14, 2025 by KUIP of US. It operates in LEO, CIRCULAR orbit with a mass of 490.00 kg.

即将过境

Passes for default location (London). Set your location on the main map for personalized predictions.

高度历史

Loading altitude history...

两行轨道根数

1 65952U 25228F 26263.58375405 .00000703 00000-0 12128-3 0 9999
2 65952 51.8996 221.2376 0000933 56.9496 303.1556 14.79933348 52050
Epoch: Sep 20, 2026 • Age: 12 hours

当前状态

高度 629.9 km
远地点 / 近地点 N/A
速度 7.55 km/s
星下点 19.98°N, 8.17°W
发射日期 Oct 14, 2025
运行时间 0.9 years
类型 internet

技术详情

分类 Payload
质量 490.00 kg
形状 ? Box + 2 pan
制造商 KUIP
平台类型 Kuiper
阶段状态 In Orbit
所有者/国家 KUIP/US

Most Searched